Location: Campillo
(40.8621°N, 4.2488°W)
Time: 13:02:37
(UTC+00:00)

Cosmos 2154 Rocket - Pass Details

Date: 29 September 2021
Orbit: 965 x 997 km, 82.9° (Epoch: 15 October)

Event Time Altitude Azimuth Distance (km) Brightness Sun altitude
Rises 05:37:19 0° 356° (N) 3,700 7.0 -7.3°
Reaches altitude 10° 05:39:55 10° 1° (N) 2,743 6.4 -6.8°
Maximum altitude 05:46:04 55° 79° (E) 1,161 4.9 -5.7°
Drops below altitude 10° 05:52:08 10° 156° (SSE) 2,706 6.7 -4.5°
Sets 05:54:41 0° 161° (SSE) 3,646 7.3 -4.0°
